Date String (YYYY-MM-DD hh:mm:ss) UTC,Instrument flags,absolute air pressure of the measurement (hPa),sample flow rate (lpm),inlet stack bypass flow (lpm),air temperature of the measurement (°C),ambient temperature measured by the external sensor (°C),aerosol sample conditioner tube jacket temperature (°C),OPC LED temperature (°C),internal box temperature (°C),relative humidity of the measurement (%),span deviation,mass concentration of particles derived from Lorenz-Mie calculation of OPC scattering (μg/m³),mass concentration of particles derived from Lorenz-Mie calculation of OPC scattering (μg/m³),mass concentration of particles derived from Lorenz-Mie calculation of OPC scattering (μg/m³)
DateTimeUTC,F1_M11,P_M11,Q1_M11,Q2_M11,T1_M11,T2_M11,T3_M11,T4_M11,T5_M11,U1_M11,ZSPAN_M11,X2_M11,X0_M11,X1_M11
2023-06-29 09:00:00,SystemResetWarning,0831.5,5.02,000.00,029.6,025.3,000.0,037.9,030.7,31.4,0000.7,0005.75,0011.93,0004.68
2023-06-29 09:01:00,SystemResetWarning,0831.5,5.00,000.00,029.4,025.5,000.0,037.9,030.5,31.7,0000.9,0005.78,0012.05,0004.68
2023-06-29 09:02:00,SystemResetWarning,0831.6,4.99,000.00,029.3,025.9,000.0,037.9,030.5,32.0,0001.2,0005.76,0012.43,0004.68
2023-06-29 09:03:00,SystemResetWarning,0831.6,5.00,000.00,029.3,026.3,000.0,037.9,030.6,32.1,0001.5,0005.74,0012.57,0004.65
2023-06-29 09:04:00,SystemResetWarning,0831.6,5.01,000.00,029.3,026.7,000.0,037.9,030.7,32.1,0001.7,0005.73,0012.71,0004.67
2023-06-29 09:05:00,SystemResetWarning,0831.6,5.00,000.00,029.3,027.0,000.0,037.9,030.8,31.9,0001.4,0005.72,0012.60,0004.67
2023-06-29 09:06:00,SystemResetWarning,0831.6,5.00,000.00,029.3,027.3,000.0,037.9,030.8,32.0,0001.3,0005.69,0011.39,0004.66
2023-06-29 09:07:00,SystemResetWarning,0831.6,5.00,000.00,029.3,027.5,000.0,037.9,030.9,32.0,0000.0,0005.66,0011.33,0004.66
2023-06-29 09:08:00,SystemResetWarning,0831.7,5.00,000.00,029.4,027.7,000.0,037.9,030.9,32.0,0000.0,0005.65,0011.53,0004.67
2023-06-29 09:09:00,SystemResetWarning,0831.7,5.00,000.00,029.4,027.8,000.0,038.0,031.0,32.0,0000.0,0005.63,0011.46,0004.67
2023-06-29 09:10:00,SystemResetWarning,0831.7,5.00,000.00,029.4,028.0,000.0,038.0,031.0,32.0,0000.0,0005.62,0011.51,0004.66
2023-06-29 09:11:00,SystemResetWarning,0831.7,5.00,000.00,029.4,028.1,000.0,038.0,031.0,31.9,0000.0,0005.58,0011.44,0004.64
2023-06-29 09:12:00,SystemResetWarning,0831.7,5.01,000.00,029.5,028.2,000.0,038.0,031.1,31.9,0000.0,0005.49,0011.21,0004.62
2023-06-29 09:13:00,SystemResetWarning,0831.8,5.00,000.00,029.5,028.3,000.0,038.0,031.1,31.9,0000.0,0005.41,0010.54,0004.61
2023-06-29 09:14:00,SystemResetWarning,0831.7,5.00,000.00,029.5,028.3,000.0,038.0,031.1,31.8,0000.0,0005.37,0010.19,0004.61
2023-06-29 09:15:00,SystemResetWarning,0831.7,5.00,000.00,029.5,028.4,000.0,038.0,031.2,31.7,0000.0,0005.34,0010.08,0004.60
2023-06-29 09:16:00,SystemResetWarning,0831.7,5.00,000.00,029.6,028.5,000.0,038.1,031.2,31.7,0000.0,0005.32,0010.07,0004.59
2023-06-29 09:17:00,SystemResetWarning,0831.7,5.00,000.00,029.6,028.5,000.0,038.1,031.3,31.6,0000.0,0005.30,0009.67,0004.59
2023-06-29 09:18:00,SystemResetWarning,0831.7,5.00,000.00,029.6,028.6,000.0,038.1,031.3,31.6,0000.0,0005.29,0009.55,0004.59
2023-06-29 09:19:00,SystemResetWarning,0831.7,4.99,000.00,029.7,028.6,000.0,038.1,031.3,31.5,-000.4,0005.27,0009.34,0004.57
2023-06-29 09:20:00,SystemResetWarning,0832.0,5.00,000.00,029.7,028.6,000.0,038.2,031.3,31.6,-000.9,0005.28,0010.04,0004.57
2023-06-29 09:21:00,SystemResetWarning,0832.2,5.00,000.00,029.7,028.7,000.0,038.2,031.4,31.6,-001.3,0005.27,0010.31,0004.56
2023-06-29 09:22:00,SystemResetWarning,0832.3,5.00,000.00,029.7,028.7,000.0,038.2,031.4,31.4,-001.6,0005.26,0010.35,0004.56
2023-06-29 09:23:00,SystemResetWarning,0832.1,5.00,000.00,029.8,028.6,000.0,038.2,031.4,31.4,-002.3,0005.29,0010.80,0004.56
2023-06-29 09:24:00,SystemResetWarning,0831.8,5.00,000.00,029.8,026.9,000.0,038.1,031.3,31.4,-002.4,0005.36,0011.35,0004.57
2023-06-29 09:25:00,SystemResetWarning,0831.7,5.00,000.00,029.7,025.6,000.0,038.0,031.1,31.4,-001.9,0005.38,0012.37,0004.57
2023-06-29 09:26:00,SystemResetWarning,0831.7,5.00,000.00,029.6,025.4,000.0,038.0,030.7,31.6,-001.6,0005.43,0012.28,0004.59
2023-06-29 09:27:00,SystemResetWarning,0831.7,5.01,000.00,029.5,025.7,000.0,038.0,030.6,31.8,-001.1,0005.44,0012.24,0004.59
2023-06-29 09:28:00,SystemResetWarning,0831.8,5.00,000.00,029.4,026.1,000.0,038.0,030.7,31.9,-000.6,0005.46,0012.23,0004.58
2023-06-29 09:29:00,SystemResetWarning,0832.1,4.98,000.00,029.4,026.5,000.0,038.0,030.8,31.9,0000.0,0005.44,0012.96,0004.58
2023-06-29 09:30:00,SystemResetWarning,0831.9,5.01,000.00,029.4,026.9,000.0,038.0,030.8,31.9,0000.0,0005.42,0012.78,0004.60
2023-06-29 09:31:00,SystemResetWarning,0831.9,5.01,000.00,029.4,027.2,000.0,038.0,030.9,31.9,0000.0,0005.41,0012.49,0004.61
2023-06-29 09:32:00,SystemResetWarning,0832.0,4.99,000.00,029.4,027.4,000.0,038.0,031.0,31.9,0000.0,0005.44,0012.89,0004.62
2023-06-29 09:33:00,SystemResetWarning,0832.0,4.99,000.00,029.4,027.6,000.0,038.0,031.0,31.9,0000.0,0005.43,0012.85,0004.63
2023-06-29 09:34:00,SystemResetWarning,0832.0,5.00,000.00,029.5,027.8,000.0,038.0,031.0,31.9,0000.0,0005.48,0013.34,0004.64
2023-06-29 09:35:00,SystemResetWarning,0832.0,5.01,000.00,029.5,028.0,000.0,038.0,031.0,31.8,0000.0,0005.47,0014.14,0004.64
2023-06-29 09:36:00,SystemResetWarning,0832.0,5.00,000.00,029.5,028.1,000.0,038.1,031.1,31.9,0000.0,0005.47,0013.26,0004.65
2023-06-29 09:37:00,SystemResetWarning,0832.0,5.00,000.00,029.5,028.2,000.0,038.1,031.1,31.9,0000.0,0005.45,0013.57,0004.64
2023-06-29 09:38:00,SystemResetWarning,0832.0,5.00,000.00,029.6,028.3,000.0,038.1,031.2,31.9,0000.0,0005.44,0014.32,0004.64
2023-06-29 09:39:00,SystemResetWarning,0832.0,5.00,000.00,029.6,028.4,000.0,038.1,031.2,31.9,0000.0,0005.50,0014.45,0004.64
2023-06-29 09:40:00,SystemResetWarning,0832.0,5.00,000.00,029.6,028.4,000.0,038.1,031.2,31.9,-000.4,0005.50,0013.68,0004.64
2023-06-29 09:41:00,SystemResetWarning,0832.0,5.00,000.00,029.6,028.5,000.0,038.1,031.2,31.7,-001.0,0005.51,0013.68,0004.62
2023-06-29 09:42:00,SystemResetWarning,0832.0,5.00,000.00,029.7,028.5,000.0,038.1,031.3,31.6,-000.1,0005.55,0013.75,0004.60
2023-06-29 09:43:00,SystemResetWarning,0832.0,5.00,000.00,029.7,028.6,000.0,038.2,031.3,31.4,-000.9,0005.55,0013.20,0004.59
2023-06-29 09:44:00,SystemResetWarning,0832.1,4.99,000.00,029.7,028.6,000.0,038.2,031.3,31.2,-000.9,0005.56,0013.38,0004.57
2023-06-29 09:45:00,SystemResetWarning,0832.1,5.01,000.00,029.7,028.7,000.0,038.2,031.4,31.3,-000.2,0005.51,0012.77,0004.55
2023-06-29 09:46:00,SystemResetWarning,0832.1,5.00,000.00,029.8,028.7,000.0,038.2,031.4,31.2,-000.9,0005.49,0011.49,0004.54
2023-06-29 09:47:00,SystemResetWarning,0832.1,5.00,000.00,029.8,028.7,000.0,038.3,031.4,31.2,-001.1,0005.48,0011.34,0004.53
2023-06-29 09:48:00,SystemResetWarning,0832.2,5.00,000.00,029.8,028.8,000.0,038.3,031.4,31.3,-000.8,0005.46,0010.92,0004.52
2023-06-29 09:49:00,SystemResetWarning,0832.1,4.99,000.00,029.8,028.1,000.0,038.3,031.4,31.2,0000.0,0005.46,0010.21,0004.50
2023-06-29 09:50:00,SystemResetWarning,0832.1,5.01,000.00,029.8,026.2,000.0,038.1,031.1,31.3,-001.1,0005.39,0010.14,0004.49
2023-06-29 09:51:00,SystemResetWarning,0832.1,5.01,000.00,029.7,025.4,000.0,038.1,030.9,31.5,-001.1,0005.38,0010.15,0004.47
2023-06-29 09:52:00,SystemResetWarning,0832.1,5.00,000.00,029.5,025.5,000.0,038.1,030.6,31.8,-000.3,0005.39,0010.17,0004.47
2023-06-29 09:53:00,SystemResetWarning,0832.0,5.00,000.00,029.5,025.9,000.0,038.1,030.6,32.0,-000.2,0005.37,0009.80,0004.47
2023-06-29 09:54:00,SystemResetWarning,0832.0,4.99,000.00,029.4,026.3,000.0,038.1,030.7,32.0,-000.0,0005.33,0010.14,0004.46
2023-06-29 09:55:00,SystemResetWarning,0832.1,4.99,000.00,029.4,026.6,000.0,038.1,030.8,32.2,-000.4,0005.31,0009.94,0004.46
2023-06-29 09:56:00,SystemResetWarning,0832.0,5.01,000.00,029.4,027.0,000.0,038.1,030.9,32.4,-000.2,0005.32,0009.70,0004.46
2023-06-29 09:57:00,SystemResetWarning,0832.0,5.01,000.00,029.4,027.3,000.0,038.1,030.9,32.3,0000.0,0005.33,0010.07,0004.45
2023-06-29 09:58:00,SystemResetWarning,0832.0,5.00,000.00,029.4,027.5,000.0,038.1,031.0,32.3,0000.0,0005.34,0010.61,0004.43
2023-06-29 09:59:00,SystemResetWarning,0832.0,5.00,000.00,029.5,027.7,000.0,038.1,031.0,32.2,0000.0,0005.38,0010.95,0004.42
